Location: Newark
(48.8656°N, 2.3211°E)
Time: 14:19:45
(UTC+00:00)

Envisat - Visible Passes

Search period start: 14 December 2018 00:00
Search period end: 24 December 2018 00:00
Orbit: 764 x 766 km, 98.2° (Epoch: 13 December)

Date Brightness Start Highest point End Pass type
(mag) Time Alt. Az. Time Alt. Az. Time Alt. Az.
14 Dec 5.8 06:20:08 10° NE 06:23:25 17° E 06:26:42 10° SE visible
14 Dec 3.6 17:38:07 10° SE 17:42:38 34° ENE 17:47:11 10° N visible
14 Dec 4.3 19:16:54 10° SSW 19:21:37 38° W 19:26:21 10° NNW visible
15 Dec 4.3 17:02:51 10° E 17:06:16 18° ENE 17:09:41 10° NNE visible
15 Dec 3.0 18:39:38 10° S 18:44:43 77° WSW 18:49:50 10° NNW visible
15 Dec 6.0 20:23:07 10° WSW 20:24:37 11° W 20:26:05 10° WNW visible
16 Dec 5.3 06:44:54 10° NE 06:49:15 28° E 06:53:35 10° SSE visible
16 Dec 3.0 18:03:06 10° SE 18:08:01 54° ENE 18:12:59 10° N visible
16 Dec 5.1 19:43:21 10° SW 19:47:22 23° W 19:51:25 10° NW visible
17 Dec 6.0 06:09:31 10° NE 06:12:04 14° E 06:14:37 10° ESE visible
17 Dec 3.8 17:27:15 10° ESE 17:31:32 28° ENE 17:35:49 10° N visible
17 Dec 3.9 19:05:28 10° S 19:10:21 46° W 19:15:16 10° NNW visible
18 Dec 4.5 16:52:19 10° E 16:55:13 16° NE 16:58:08 10° NNE visible
18 Dec 2.8 18:28:27 10° SSE 18:33:31 87° E 18:38:38 10° NNW visible
18 Dec 5.8 20:10:36 10° WSW 20:13:15 14° W 20:15:54 10° NW visible
19 Dec 5.6 06:33:57 10° NE 06:37:57 23° E 06:41:55 10° SE visible
19 Dec 3.2 17:52:05 10° SE 17:56:53 44° ENE 18:01:42 10° N visible
19 Dec 4.8 19:31:43 10° SSW 19:36:04 28° W 19:40:27 10° NW visible
20 Dec 6.3 05:59:26 10° ENE 06:00:42 11° E 06:01:58 10° E visible
20 Dec 4.0 17:16:28 10° ESE 17:20:26 24° ENE 17:24:25 10° N visible
20 Dec 3.5 18:54:07 10° S 18:59:06 57° W 19:04:08 10° NNW visible
21 Dec 4.8 06:59:01 10° NNE 07:03:44 37° E 07:08:24 10° SSE visible
21 Dec 4.6 16:41:58 10° E 16:44:11 13° NE 16:46:25 10° NNE visible
21 Dec 2.8 18:17:17 10° SSE 18:22:20 72° ENE 18:27:25 10° N visible
21 Dec 5.5 19:58:33 10° SW 20:01:54 17° W 20:05:16 10° NW visible
22 Dec 5.8 06:23:06 10° NE 06:26:38 19° E 06:30:08 10° SE visible
22 Dec 3.5 17:41:09 10° SE 17:45:45 36° ENE 17:50:23 10° N visible
22 Dec 4.5 19:20:10 10° SSW 19:24:47 35° W 19:29:27 10° NNW visible
23 Dec 4.2 17:05:47 10° ESE 17:09:22 20° ENE 17:12:58 10° NNE visible
23 Dec 3.2 18:42:49 10° S 18:47:53 71° WSW 18:52:59 10° NNW visible
23 Dec 6.1 20:27:30 10° W 20:27:50 10° W 20:28:11 10° W visible
